Location: Unspecified
(0.0000°N, 0.0000°E)
Time: 00:41:38
(UTC+00:00)

Cosmos 2173 Rocket - Visible Passes

Search period start: 15 August 2022 00:00
Search period end: 25 August 2022 00:00
Orbit: 945 x 1000 km, 83.0° (Epoch: 14 August)

Date Brightness Start Highest point End Pass type
(mag) Time Alt. Az. Time Alt. Az. Time Alt. Az.
19 Aug 6.1 20:00:58 10° NNE 20:01:17 11° NNE 20:01:17 11° NNE visible
20 Aug 5.9 20:24:49 10° N 20:26:15 18° N 20:26:15 18° N visible
21 Aug 6.0 20:49:32 10° NNW 20:51:18 19° NNW 20:51:18 19° NNW visible
22 Aug 5.4 19:29:37 10° NNE 19:31:47 19° NE 19:31:47 19° NE visible
22 Aug 6.5 21:15:18 10° NW 21:16:27 14° NW 21:16:27 14° NW visible
23 Aug 4.6 19:53:08 10° N 19:57:03 40° NNE 19:57:03 40° NNE visible
24 Aug 4.5 20:17:32 10° NNW 20:22:28 53° NW 20:22:28 53° NW visible
